Regional Weather Roundup
Issued by NWS

Home | Current Version | Previous Version | Graphics & Text | Print | Product List | Glossary On
Versions: 1 2 3 4 5 6 7 8 9 10 11 12 13 14 15 16 17 18 19 20 21 22 23 24 25 26 27 28 29 30 31 32 33 34 35 36 37 38 39 40 41 42 43 44 45 46 47 48 49 50
000
ASUS44 KMEG 261110
RWRTN
TENNESSEE HOURLY STATE WEATHER ROUNDUP
NATIONAL WEATHER SERVICE MEMPHIS TN
600 AM CDT SAT JUL 26 2014

TNZ002-004-019-021-049-052-054-088>092-261200-
WEST TENNESSEE

CITY           SKY/WX    TMP DP  RH WIND       PRES   REMARKS
MEMPHIS INTL   PTCLDY    72  66  81 S6        30.00R
NWS MEMPHIS      N/A     69 N/A N/A MISG        N/A
JACKSON        CLEAR     65  62  90 S5        30.00S
DYERSBURG      CLEAR     66  57  72 CALM      30.00R
UNION CITY     CLEAR     64  63  94 S6        29.97R
PARIS          CLEAR     62  60  93 S3        30.00R
LEXINGTON        N/A     61  61 100 CALM      30.01S VSB 1
SAVANNAH       CLEAR     61  61 100 CALM      30.03S
$$

TNZ008-025-027-028-033-062-065-066-261200-
NORTH MIDDLE TENNESSEE

CITY           SKY/WX    TMP DP  RH WIND       PRES   REMARKS
NASHVILLE      PTCLDY    65  63  93 CALM      30.02S
DICKSON        CLEAR     64  63  94 CALM      30.02S
PORTLAND       CLEAR     64  61  88 S3        30.02R
CLARKSVILLE    CLEAR     63  61  93 SE3       30.00S FOG
LEBANON        CLEAR     63  61  93 CALM      30.01S
SMYRNA         CLEAR     63  63 100 CALM      30.03S
MURFREESBORO   CLEAR     65  62  90 CALM      30.02S
COOKEVILLE     CLEAR     59  59 100 CALM      30.04S
GALLATIN       CLEAR     63  63 100 CALM      30.02F
CROSSVILLE     CLEAR     61  57  87 CALM      30.08S FOG
$$

TNZ061-075-076-078-094-096-097-261200-
SOUTH MIDDLE TENNESSEE

CITY           SKY/WX    TMP DP  RH WIND       PRES   REMARKS
LEWISBURG      CLEAR     60  58  93 CALM      30.03S
FAYETTEVILLE   CLEAR     63  61  94 CALM      30.05S
TULLAHOMA      CLEAR     61  57  88 CALM      30.06S
WINCHESTER     CLEAR     61  61 100 CALM      30.06R
MCMINNVILLE    MOCLDY    61  61 100 CALM      30.05S VSB 1/2
COLUMBIA       CLEAR     63  63 100 CALM      30.02R
SHELBYVILLE    CLEAR     63  63 100 CALM      30.05R
$$

TNZ017-018-042-046-047-261200-
NORTHEAST TENNESSEE

CITY           SKY/WX    TMP DP  RH WIND       PRES   REMARKS
TRI CITIES     MOCLDY    63  60  90 CALM      30.08S
ELIZABETHTON   PTSUNNY   63  61  94 CALM      30.09S
$$

TNZ012-013-036-069-073-074-261200-
CENTRAL EAST TENNESSEE

CITY           SKY/WX    TMP DP  RH WIND       PRES   REMARKS
KNOXVILLE      PTCLDY    63  62  97 E5        30.05R
OAK RIDGE      FOG       63  62  97 CALM      30.07R VSB 1/4
GATLINBURG     SUNNY     61  61 100 CALM      30.06S
MORRISTOWN     SUNNY     61  61 100 CALM      30.08R
$$

TNZ083-085-099-261200-
SOUTHEAST TENNESSEE

CITY           SKY/WX    TMP DP  RH WIND       PRES   REMARKS
CHATTANOOGA    MOCLDY    67  63  87 CALM      30.05S
$$

SKY/WX REPORTED AS FAIR MEANS FEW OR NO CLOUDS BELOW
12 THOUSAND FEET.




USA.gov is the U.S. government's official web portal to all federal, state and local government web resources and services.